Total_Precipitation_Accumulation
2.03 2.05 1.58 0.98 0.76 0.62 0.59 0.62 0.56 0.48 0.45 0.62 0.68 0.64 0.66 0.62 0.60 0.63 0.64 0.65 0.77 0.93 1.07 1.27 1.49 1.88 2.13 2.44 2.77 2.88 3.10 3.25 3.38 3.51 3.50 3.30 3.02 2.81 2.68 2.62 2.57 2.40 2.23 2.15
1.93 1.56 0.88 0.70 0.70 0.71 0.72 0.77 0.61 0.50 0.46 0.58 0.63 0.59 0.64 0.69 0.67 0.59 0.57 0.58 0.65 0.80 0.94 1.08 1.29 1.63 1.84 2.03 2.27 2.50 2.68 2.87 3.02 3.11 3.14 3.24 3.25 3.00 2.74 2.66 2.62 2.60 2.53 2.38
1.38 0.91 0.64 0.74 0.84 0.91 0.82 0.76 0.64 0.58 0.54 0.61 0.65 0.67 0.60 0.63 0.64 0.63 0.61 0.59 0.65 0.79 0.82 0.92 1.09 1.41 1.60 1.73 1.91 2.13 2.36 2.47 2.54 2.84 3.12 3.19 3.39 3.30 2.88 2.57 2.41 2.50 2.62 2.65
1.14 0.68 0.70 0.87 0.83 0.86 0.90 0.57 0.57 0.62 0.86 0.95 0.72 0.89 0.63 0.57 0.57 0.61 0.64 0.67 0.73 0.79 0.84 0.91 1.00 1.20 1.37 1.45 1.64 1.87 2.16 2.34 2.34 2.53 2.77 2.78 2.73 2.80 2.62 2.45 2.45 2.50 2.56 2.65
1.20 0.77 0.79 0.94 0.71 0.73 0.75 0.55 0.66 0.74 0.92 1.02 0.70 0.83 0.73 0.53 0.61 0.64 0.65 0.72 0.78 0.74 0.77 0.88 0.94 1.01 1.15 1.24 1.34 1.55 1.91 2.19 2.27 2.27 2.39 2.57 2.62 2.63 2.70 2.64 2.58 2.48 2.38 2.43
0.89 0.79 0.88 0.82 0.61 0.69 0.77 0.88 1.01 1.06 1.40 1.45 0.65 0.71 0.75 0.64 0.66 0.62 0.56 0.64 0.71 0.68 0.73 0.80 0.82 0.88 1.05 1.08 1.10 1.24 1.46 1.87 2.18 2.24 2.24 2.28 2.33 2.34 2.45 2.58 2.55 2.51 2.38 2.25
1.08 0.89 0.82 0.83 1.00 1.01 1.23 1.80 2.28 2.18 2.03 1.13 0.40 0.55 0.79 0.68 0.58 0.60 0.57 0.55 0.61 0.67 0.69 0.72 0.78 0.89 0.97 1.02 0.98 1.04 1.15 1.44 1.80 2.00 2.02 2.03 2.09 2.13 2.14 2.28 2.43 2.40 2.29 2.15
1.17 1.05 0.75 0.86 1.17 1.26 1.19 1.56 1.81 1.47 0.97 0.54 0.37 0.56 0.74 0.64 0.53 0.49 0.43 0.42 0.50 0.59 0.61 0.64 0.67 0.74 0.80 0.84 0.88 0.96 1.02 1.14 1.34 1.54 1.71 1.81 1.88 1.91 1.84 1.88 2.10 2.19 2.07 1.99
0.99 0.82 0.51 0.62 0.77 0.95 1.16 1.23 1.07 1.29 0.88 0.61 0.48 0.52 0.55 0.44 0.43 0.43 0.39 0.38 0.43 0.47 0.48 0.51 0.55 0.59 0.61 0.66 0.73 0.81 0.85 0.93 1.05 1.17 1.38 1.59 1.64 1.70 1.73 1.73 1.83 2.04 2.04 1.89
0.97 0.99 0.58 0.63 0.89 1.01 1.06 1.04 1.24 1.85 1.48 0.87 0.50 0.45 0.57 0.50 0.45 0.47 0.44 0.40 0.38 0.38 0.40 0.43 0.49 0.54 0.57 0.59 0.55 0.58 0.69 0.83 0.94 0.96 1.10 1.32 1.47 1.51 1.55 1.62 1.66 1.73 1.80 1.79
0.85 1.19 0.85 0.84 1.12 1.07 1.07 1.29 1.44 1.52 1.27 1.12 0.77 0.64 0.60 0.52 0.48 0.47 0.46 0.41 0.38 0.36 0.39 0.41 0.42 0.48 0.56 0.60 0.53 0.49 0.57 0.70 0.80 0.83 0.90 1.04 1.19 1.32 1.38 1.39 1.42 1.47 1.52 1.60
0.83 1.34 1.07 0.74 0.65 0.71 0.90 1.04 1.28 1.72 1.34 1.03 0.88 0.72 0.53 0.45 0.43 0.44 0.46 0.44 0.42 0.41 0.42 0.40 0.38 0.41 0.52 0.61 0.60 0.54 0.55 0.61 0.70 0.75 0.80 0.91 0.98 1.09 1.23 1.31 1.27 1.26 1.30 1.35
1.14 1.62 1.48 1.05 0.92 0.92 1.05 0.94 0.99 1.40 1.72 1.36 1.08 0.74 0.47 0.37 0.35 0.38 0.42 0.45 0.45 0.45 0.46 0.43 0.41 0.41 0.47 0.58 0.63 0.59 0.58 0.59 0.63 0.71 0.72 0.82 0.89 0.93 0.99 1.11 1.18 1.19 1.21 1.27
1.40 1.64 1.36 1.14 1.08 1.10 1.03 0.83 0.95 1.68 2.13 1.28 0.75 0.52 0.38 0.36 0.41 0.41 0.40 0.43 0.48 0.50 0.50 0.49 0.51 0.49 0.49 0.54 0.60 0.59 0.61 0.59 0.57 0.66 0.71 0.71 0.81 0.87 0.89 0.92 1.00 1.07 1.10 1.15
1.14 1.49 1.00 0.66 0.53 0.71 0.77 0.75 0.87 1.27 1.31 1.25 0.74 0.48 0.44 0.45 0.51 0.50 0.45 0.41 0.42 0.45 0.46 0.47 0.49 0.53 0.52 0.51 0.57 0.59 0.60 0.62 0.57 0.60 0.68 0.70 0.73 0.78 0.86 0.89 0.94 1.00 1.03 1.07
0.92 1.23 1.00 0.72 0.45 0.54 0.63 0.62 0.66 0.77 0.84 0.86 0.64 0.60 0.51 0.48 0.45 0.43 0.42 0.39 0.40 0.42 0.45 0.44 0.42 0.46 0.47 0.51 0.57 0.62 0.63 0.63 0.61 0.58 0.61 0.67 0.71 0.74 0.78 0.85 0.91 0.94 1.00 1.06
0.85 1.10 1.27 0.90 0.51 0.64 0.79 0.72 0.72 0.74 0.74 0.75 0.79 0.71 0.57 0.52 0.49 0.47 0.44 0.41 0.40 0.38 0.38 0.39 0.39 0.42 0.43 0.46 0.52 0.58 0.62 0.62 0.63 0.62 0.61 0.64 0.69 0.75 0.78 0.82 0.90 1.00 1.06 1.17
0.59 0.95 1.41 1.05 0.73 0.93 0.76 0.58 0.60 0.64 0.67 0.71 0.69 0.59 0.54 0.52 0.50 0.49 0.44 0.40 0.37 0.35 0.34 0.33 0.34 0.34 0.34 0.37 0.42 0.50 0.57 0.61 0.62 0.64 0.68 0.70 0.71 0.79 0.87 0.89 0.94 1.04 1.12 1.22
0.34 0.80 1.36 1.20 0.92 0.63 0.43 0.41 0.55 0.63 0.67 0.65 0.53 0.43 0.41 0.41 0.41 0.43 0.39 0.36 0.35 0.35 0.37 0.36 0.35 0.35 0.34 0.36 0.40 0.48 0.57 0.61 0.62 0.64 0.68 0.73 0.76 0.86 0.95 0.95 0.97 1.03 1.08 1.15
0.32 0.66 1.32 1.26 1.08 0.62 0.43 0.27 0.31 0.49 0.72 0.53 0.46 0.44 0.44 0.43 0.51 0.46 0.37 0.33 0.35 0.33 0.33 0.38 0.40 0.37 0.39 0.41 0.43 0.49 0.59 0.71 0.75 0.75 0.76 0.81 0.90 1.01 1.04 1.02 1.00 0.97 0.97 0.97
0.51 0.92 1.22 1.06 1.00 0.55 0.39 0.24 0.25 0.66 0.80 0.44 0.41 0.44 0.47 0.51 0.52 0.45 0.35 0.32 0.35 0.37 0.36 0.37 0.41 0.44 0.47 0.48 0.49 0.52 0.58 0.73 0.81 0.85 0.87 0.89 0.96 1.02 1.03 1.00 0.94 0.90 0.85 0.84
0.49 0.68 0.76 0.80 1.04 0.76 0.40 0.32 0.58 0.74 0.46 0.39 0.40 0.44 0.47 0.46 0.39 0.33 0.34 0.34 0.33 0.34 0.34 0.39 0.46 0.49 0.50 0.55 0.61 0.61 0.64 0.71 0.76 0.81 0.83 0.83 0.85 0.89 0.93 0.95 0.91 0.86 0.84 0.83
0.52 0.65 0.68 0.72 0.81 0.69 0.53 0.57 0.59 0.49 0.44 0.38 0.40 0.41 0.41 0.41 0.39 0.34 0.31 0.31 0.33 0.36 0.36 0.42 0.51 0.56 0.57 0.58 0.62 0.67 0.64 0.63 0.66 0.72 0.75 0.74 0.72 0.74 0.77 0.81 0.84 0.86 0.84 0.82
0.47 0.40 0.50 0.60 0.61 0.52 0.49 0.44 0.40 0.39 0.42 0.38 0.36 0.38 0.40 0.42 0.39 0.36 0.34 0.33 0.32 0.33 0.36 0.41 0.46 0.51 0.53 0.53 0.55 0.58 0.55 0.52 0.53 0.58 0.64 0.67 0.68 0.68 0.67 0.68 0.75 0.81 0.83 0.81
0.51 0.45 0.48 0.54 0.49 0.40 0.39 0.39 0.39 0.37 0.33 0.30 0.28 0.29 0.34 0.37 0.36 0.36 0.37 0.36 0.35 0.35 0.37 0.40 0.45 0.50 0.51 0.49 0.50 0.50 0.49 0.47 0.49 0.50 0.53 0.57 0.63 0.67 0.69 0.69 0.74 0.81 0.82 0.89
0.43 0.47 0.55 0.61 0.48 0.48 0.49 0.42 0.37 0.35 0.34 0.33 0.30 0.29 0.28 0.31 0.35 0.33 0.35 0.34 0.35 0.39 0.39 0.39 0.41 0.46 0.51 0.50 0.49 0.49 0.48 0.47 0.51 0.52 0.53 0.56 0.62 0.66 0.68 0.69 0.73 0.81 0.84 0.90